DW2659 Weather Reports


time (UTC)temp
F
wind
direction
speed
knots
gust
knots
rain 1hr
in
rain 24hr
in
rain mn
in
humidity
%
barometer
mb
20260906002403 80 11 0.9 1.7 0.00 0.00 0.00 80 1011.5
20260906001905 80 11 0.0 1.7 0.00 0.00 0.00 79 1011.5
20260906001403 81 11 0.0 0.0 0.00 0.00 0.00 79 1011.6
20260906000903 81 11 0.0 0.9 0.00 0.00 0.00 78 1011.6
20260906000405 81 11 0.0 0.9 0.00 0.00 0.00 77 1011.6
20260905235903 82 11 0.0 0.9 0.00 0.00 0.00 76 1011.8
20260905235403 82 11 0.9 1.7 0.00 0.00 0.00 75 1011.8
20260905234905 83 11 0.9 1.7 0.00 0.00 0.00 74 1011.8
20260905234404 83 11 0.9 1.7 0.00 0.00 0.00 73 1011.8
20260905233903 83 11 0.9 1.7 0.00 0.00 0.00 71 1011.9
20260905233404 84 11 0.9 0.9 0.00 0.00 0.00 70 1011.7
20260905232905 84 11 0.0 0.0 0.00 0.00 0.00 70 1011.7
20260905232404 84 11 0.0 0.0 0.00 0.00 0.00 69 1011.7
20260905231405 85 11 0.0 0.0 0.00 0.00 0.00 68 1011.4
20260905225905 87 11 0.9 1.7 0.00 0.00 0.00 64 1011.4
20260905225403 87 11 0.9 1.7 0.00 0.00 0.00 64 1011.0
20260905224904 88 11 0.9 1.7 0.00 0.00 0.00 62 1011.0
20260905224405 88 11 0.9 1.7 0.00 0.00 0.00 63 1011.0
20260905222904 90 11 0.9 2.6 0.00 0.00 0.00 60 1011.7
20260905222404 90 11 0.9 2.6 0.00 0.00 0.00 61 1011.7
20260905221904 91 11 0.9 1.7 0.00 0.00 0.00 60 1011.7
20260905221405 91 11 0.0 0.9 0.00 0.00 0.00 60 1012.1
20260905220904 91 11 0.9 1.7 0.00 0.00 0.00 60 1012.1
20260905220404 91 11 0.9 2.6 0.00 0.00 0.00 60 1012.1
20260905215403 90 11 0.9 1.7 0.00 0.00 0.00 60 1012.1
20260905214904 90 11 0.9 1.7 0.00 0.00 0.00 61 1012.1
20260905213904 88 11 0.9 2.6 0.00 0.00 0.00 64 1012.1
20260905213404 87 11 1.7 2.6 0.00 0.00 0.00 66 1012.1
20260905212905 86 9 1.7 2.6 0.00 0.00 0.00 68 1011.9
20260905212404 85 22 1.7 2.6 0.00 0.00 0.00 66 1011.9
20260905211904 86 22 2.6 4.3 0.00 0.00 0.00 65 1011.9
20260905211405 88 33 2.6 4.3 0.00 0.00 0.00 65 1011.7
20260905210904 89 31 1.7 4.3 0.00 0.00 0.00 61 1011.7
20260905205905 91 19 6.1 10.4 0.00 0.00 0.00 51 1011.5
20260905205404 94 24 5.2 8.7 0.00 0.00 0.00 49 1011.5
20260905204904 97 16 5.2 8.7 0.00 0.00 0.00 45 1011.5
20260905204405 99 12 5.2 10.4 0.00 0.00 0.00 45 1011.5
20260905203904 99 19 1.7 6.1 0.00 0.00 0.00 47 1011.5
20260905203404 98 47 1.7 2.6 0.00 0.00 0.00 49 1011.5
20260905202904 98 39 0.9 2.6 0.00 0.00 0.00 49 1011.5
20260905202404 97 13 2.6 4.3 0.00 0.00 0.00 50 1011.5
20260905201903 97 23 1.7 4.3 0.00 0.00 0.00 50 1011.5
20260905201405 97 15 1.7 2.6 0.00 0.00 0.00 49 1011.5
20260905200903 96 71 0.9 1.7 0.00 0.00 0.00 54 1011.5
20260905200404 96 71 0.0 1.7 0.00 0.00 0.00 55 1011.6
20260905195403 96 71 0.0 0.9 0.00 0.00 0.00 55 1011.5
20260905194904 96 71 0.0 0.0 0.00 0.00 0.00 54 1011.5
20260905193905 97 71 0.0 0.0 0.00 0.00 0.00 54 1011.8
20260905193403 97 71 0.0 0.0 0.00 0.00 0.00 54 1011.8
20260905191904 99 71 0.0 0.0 0.00 0.00 0.00 50 1012.1
20260905191404 99 71 0.0 0.9 0.00 0.00 0.00 49 1012.1
20260905190905 99 71 0.0 0.9 0.00 0.00 0.00 48 1012.1
20260905190404 100 62 0.9 1.7 0.00 0.00 0.00 47 1012.1
20260905185904 100 5 0.9 4.3 0.00 0.00 0.00 46 1012.1
20260905185405 99 23 1.7 2.6 0.00 0.00 0.00 48 1012.1
20260905184904 99 23 2.6 2.6 0.00 0.00 0.00 45 1012.1
20260905184404 99 295 1.7 2.6 0.00 0.00 0.00 45 1012.1
20260905183905 99 358 1.7 4.3 0.00 0.00 0.00 46 1012.1
20260905183403 99 62 1.7 4.3 0.00 0.00 0.00 45 1012.2
20260905182904 98 71 1.7 2.6 0.00 0.00 0.00 45 1012.4
20260905182405 98 93 1.7 4.3 0.00 0.00 0.00 46 1012.4
20260905181402 98 231 0.9 2.6 0.00 0.00 0.00 45 1012.5
20260905180904 98 32 1.7 2.6 0.00 0.00 0.00 47 1012.8
20260905180402 98 242 0.9 2.6 0.00 0.00 0.00 46 1012.8
20260905174902 98 83 1.7 2.6 0.00 0.00 0.00 45 1013.2
20260905174402 98 11 1.7 4.3 0.00 0.00 0.00 49 1013.2
20260905173904 98 68 0.9 2.6 0.00 0.00 0.00 47 1013.2
20260905173402 98 70 1.7 4.3 0.00 0.00 0.00 48 1013.2
20260905172902 98 105 0.9 2.6 0.00 0.00 0.00 47 1013.2
20260905172404 98 276 1.7 2.6 0.00 0.00 0.00 48 1013.2
20260905171902 98 216 0.9 1.7 0.00 0.00 0.00 50 1013.2
20260905171402 97 90 0.9 2.6 0.00 0.00 0.00 49 1013.4
20260905170903 97 0 0.9 2.6 0.00 0.00 0.00 52 1013.4
20260905170403 97 248 2.6 2.6 0.00 0.00 0.00 51 1013.4
20260905165402 96 353 1.7 2.6 0.00 0.00 0.00 51 1013.6
20260905164403 96 139 3.5 6.1 0.00 0.00 0.00 53 1013.9
20260905163902 96 57 0.9 2.6 0.00 0.00 0.00 53 1013.9
20260905163404 96 354 0.9 2.6 0.00 0.00 0.00 55 1013.9
20260905162402 96 80 0.9 1.7 0.00 0.00 0.00 55 1014.0
20260905161402 94 199 1.7 2.6 0.00 0.00 0.00 56 1014.1
20260905160903 94 345 0.9 1.7 0.00 0.00 0.00 57 1014.1
20260905160404 94 106 0.9 2.6 0.00 0.00 0.00 57 1014.1
20260905155902 94 50 0.9 2.6 0.00 0.00 0.00 59 1014.2
20260905155403 93 33 0.9 2.6 0.00 0.00 0.00 60 1014.2
20260905154903 93 114 0.9 1.7 0.00 0.00 0.00 59 1014.4
20260905154403 93 59 1.7 2.6 0.00 0.00 0.00 59 1014.4
20260905153902 92 38 0.9 2.6 0.00 0.00 0.00 62 1014.4
20260905152902 90 98 0.9 1.7 0.00 0.00 0.00 62 1014.4
20260905152403 90 118 1.7 2.6 0.00 0.00 0.00 61 1014.4
20260905151903 90 48 1.7 4.3 0.00 0.00 0.00 61 1014.4
20260905151403 90 119 1.7 2.6 0.00 0.00 0.00 62 1014.6
20260905150902 90 90 2.6 4.3 0.00 0.00 0.00 61 1014.6
20260905145902 89 99 1.7 4.3 0.00 0.00 0.00 63 1014.9
20260905144904 90 176 1.7 2.6 0.00 0.00 0.00 61 1014.9
20260905144403 89 120 0.9 2.6 0.00 0.00 0.00 65 1014.9
20260905143902 89 68 0.9 2.6 0.00 0.00 0.00 65 1014.9
20260905142903 88 153 1.7 4.3 0.00 0.00 0.00 67 1014.9
20260905142402 88 5 0.9 1.7 0.00 0.00 0.00 67 1014.9
20260905141904 87 25 0.9 1.7 0.00 0.00 0.00 69 1014.9
20260905141402 86 75 0.0 2.6 0.00 0.00 0.00 70 1014.8
20260905140403 85 69 1.7 4.3 0.00 0.00 0.00 71 1014.8
20260905135903 85 105 1.7 2.6 0.00 0.00 0.00 70 1014.9
20260905135403 85 99 1.7 4.3 0.00 0.00 0.00 71 1014.9
20260905134904 85 106 2.6 4.3 0.00 0.00 0.00 71 1014.9
20260905134403 85 157 0.9 2.6 0.00 0.00 0.00 73 1015.4
20260905133903 84 76 0.0 0.9 0.00 0.00 0.00 76 1015.4
20260905133403 83 76 0.9 1.7 0.00 0.00 0.00 75 1015.4
20260905131903 80 76 0.0 0.9 0.00 0.00 0.00 82 1015.4
20260905130902 78 76 0.0 0.0 0.00 0.00 0.00 86 1015.3
20260905130404 77 76 0.0 1.7 0.00 0.00 0.00 87 1015.3
20260905125903 76 76 0.0 0.9 0.00 0.00 0.00 90 1015.3
20260905124904 75 76 0.0 0.9 0.00 0.00 0.00 93 1015.2
20260905124403 74 76 0.9 1.7 0.00 0.00 0.00 93 1015.2
20260905123902 74 76 0.0 0.9 0.00 0.00 0.00 93 1015.0
20260905123404 73 76 0.0 0.9 0.00 0.00 0.00 93 1015.0
20260905122903 73 76 0.9 1.7 0.00 0.00 0.00 93 1015.0
20260905122403 73 76 0.0 0.0 0.00 0.00 0.00 93 1015.0
20260905121904 73 76 0.0 0.0 0.00 0.00 0.00 93 1015.0
20260905115402 72 76 0.0 0.0 0.00 0.00 0.00 93 1014.3
20260905114904 72 76 0.0 0.9 0.00 0.00 0.00 93 1014.3
20260905114403 72 76 0.0 0.9 0.00 0.00 0.00 93 1014.3
20260905113404 72 76 0.0 0.9 0.00 0.00 0.00 93 1014.3
20260905112902 72 76 0.0 0.0 0.00 0.00 0.00 92 1014.3
20260905111904 72 76 0.9 0.9 0.00 0.00 0.00 92 1014.3
20260905111402 72 76 0.9 0.9 0.00 0.00 0.00 92 1014.0
20260905110903 72 76 0.0 0.0 0.00 0.00 0.00 92 1014.0
20260905110404 72 76 0.0 0.9 0.00 0.00 0.00 92 1014.0
20260905105903 72 76 0.9 1.7 0.00 0.00 0.00 92 1014.0
20260905105402 72 76 0.0 0.0 0.00 0.00 0.00 92 1014.0
20260905104904 72 76 0.0 0.0 0.00 0.00 0.00 92 1014.0
20260905104402 72 76 0.0 0.0 0.00 0.00 0.00 91 1013.8
20260905103903 72 76 0.0 0.0 0.00 0.00 0.00 91 1013.8
20260905103404 72 76 0.0 0.0 0.00 0.00 0.00 91 1013.8
20260905102902 72 76 0.0 0.0 0.00 0.00 0.00 91 1013.8
20260905102403 72 76 0.0 0.0 0.00 0.00 0.00 91 1013.8
20260905101403 73 76 0.0 0.0 0.00 0.00 0.00 91 1013.8
20260905095903 73 76 0.0 0.0 0.00 0.00 0.00 91 1013.6
20260905094902 73 76 0.0 0.0 0.00 0.00 0.00 91 1013.6
20260905094404 73 76 0.0 0.0 0.00 0.00 0.00 91 1013.6
20260905093402 73 76 0.0 0.0 0.00 0.00 0.00 91 1013.7
20260905092904 73 76 0.0 0.0 0.00 0.00 0.00 90 1013.5
20260905092403 73 76 0.0 0.0 0.00 0.00 0.00 91 1013.5
20260905091903 73 76 0.0 0.0 0.00 0.00 0.00 91 1013.5
20260905091404 73 76 0.0 0.0 0.00 0.00 0.00 90 1013.6
20260905085904 73 76 0.0 0.0 0.00 0.00 0.00 90 1013.6
20260905084404 74 76 0.0 0.0 0.00 0.00 0.00 90 1013.7
20260905083903 73 76 0.0 0.9 0.00 0.00 0.00 90 1013.7
20260905082904 74 76 0.0 0.0 0.00 0.00 0.00 90 1013.7
20260905082403 74 76 0.0 0.0 0.00 0.00 0.00 90 1013.7
20260905081903 74 76 0.0 0.9 0.00 0.00 0.00 90 1013.7
20260905081404 74 76 0.0 0.9 0.00 0.00 0.00 89 1013.6
20260905080903 74 76 0.9 0.9 0.00 0.00 0.00 90 1013.6
20260905080402 74 76 0.0 0.9 0.00 0.00 0.00 89 1013.3
20260905075903 74 76 0.0 0.9 0.00 0.00 0.00 90 1013.3
20260905074903 74 76 0.0 0.9 0.00 0.00 0.00 89 1013.3
20260905074403 74 76 0.9 0.9 0.00 0.00 0.00 89 1013.3
20260905073403 74 76 0.0 0.9 0.00 0.00 0.00 88 1013.3
20260905072903 74 76 0.0 0.9 0.00 0.00 0.00 88 1013.3
20260905072404 74 76 0.0 0.9 0.00 0.00 0.00 88 1013.3
20260905071903 74 76 0.0 0.0 0.00 0.00 0.00 87 1013.3
20260905070904 75 76 0.9 0.9 0.00 0.00 0.00 87 1013.5
20260905065903 75 76 0.0 0.9 0.00 0.00 0.00 87 1013.6
20260905065404 75 76 0.9 1.7 0.00 0.00 0.00 87 1013.5
20260905064903 75 76 0.0 0.9 0.00 0.00 0.00 87 1013.8
20260905064403 75 76 0.0 0.9 0.00 0.00 0.00 87 1013.8
20260905063904 75 76 0.0 0.9 0.00 0.00 0.00 86 1013.8
20260905063403 75 76 0.9 0.9 0.00 0.00 0.00 86 1013.8
20260905062902 75 76 0.0 0.9 0.00 0.00 0.00 87 1013.7
20260905062405 75 76 0.0 0.9 0.00 0.00 0.00 87 1013.7
20260905061903 75 76 0.0 0.9 0.00 0.00 0.00 87 1013.7
20260905061403 75 76 0.0 0.0 0.00 0.00 0.00 86 1013.7
20260905060904 75 76 0.0 0.0 0.00 0.00 0.00 86 1013.8
20260905055903 75 76 0.0 0.9 0.00 0.00 0.00 86 1013.7
20260905054903 75 76 0.0 0.9 0.00 0.00 0.00 86 1013.7
20260905054404 75 76 0.0 0.9 0.00 0.00 0.00 86 1013.7
20260905053904 76 76 0.0 0.0 0.00 0.00 0.00 85 1013.8
20260905053403 76 76 0.0 0.9 0.00 0.00 0.00 85 1013.8
20260905052903 76 76 0.0 0.9 0.00 0.00 0.00 85 1013.7
20260905052404 76 76 0.0 0.0 0.00 0.00 0.00 85 1013.7
20260905051403 76 76 0.0 0.0 0.00 0.00 0.00 85 1014.1
20260905050905 76 76 0.0 0.0 0.00 0.00 0.00 85 1014.1
20260905050403 76 76 0.0 0.0 0.00 0.00 0.00 85 1014.1
20260905045903 76 76 0.0 0.0 0.00 0.00 0.00 85 1014.4
20260905045405 76 76 0.0 0.0 0.00 0.00 0.00 84 1014.4
20260905044403 76 76 0.0 0.0 0.00 0.00 0.00 84 1014.4
20260905043905 76 76 0.0 0.0 0.00 0.00 0.00 84 1014.4
20260905043403 76 76 0.0 0.0 0.00 0.00 0.00 84 1014.4
20260905042404 76 76 0.0 0.0 0.00 0.00 0.00 83 1014.4
20260905041403 76 76 0.0 0.9 0.00 0.00 0.00 83 1014.4
20260905040904 77 76 0.0 0.9 0.00 0.00 0.00 82 1014.4
20260905040403 77 76 0.9 1.7 0.00 0.00 0.00 82 1014.4
20260905035903 77 76 0.0 0.9 0.00 0.00 0.00 82 1014.7
20260905034904 77 76 0.0 1.7 0.00 0.00 0.00 81 1014.7
20260905033903 77 76 0.0 0.9 0.00 0.00 0.00 81 1014.7
20260905033404 78 76 0.0 0.0 0.00 0.00 0.00 80 1014.7
20260905032904 78 76 0.0 0.0 0.00 0.00 0.00 80 1014.7
20260905032403 78 76 0.0 0.0 0.00 0.00 0.00 80 1014.7
20260905031904 78 76 0.0 0.0 0.00 0.00 0.00 79 1014.7
20260905030904 78 76 0.0 0.0 0.00 0.00 0.00 79 1015.0
20260905030404 78 76 0.0 0.0 0.00 0.00 0.00 79 1015.0
20260905025903 78 76 0.0 0.0 0.00 0.00 0.00 78 1015.0
20260905025403 78 76 0.0 0.0 0.00 0.00 0.00 79 1015.0
20260905024904 78 76 0.0 0.0 0.00 0.00 0.00 78 1015.0
20260905023903 79 76 0.9 0.9 0.00 0.00 0.00 77 1014.8
20260905023404 79 76 0.9 1.7 0.00 0.00 0.00 76 1014.8
20260905022903 79 76 0.9 1.7 0.00 0.00 0.00 76 1014.8
20260905022403 79 76 0.0 0.0 0.00 0.00 0.00 74 1014.8
20260905021903 79 76 0.0 0.0 0.00 0.00 0.00 75 1014.8
20260905021405 80 76 0.0 0.9 0.00 0.00 0.00 75 1014.7
20260905020904 80 76 0.0 0.9 0.00 0.00 0.00 75 1014.7
20260905020403 80 76 0.9 0.9 0.00 0.00 0.00 74 1014.7
20260905015403 80 76 0.0 0.0 0.00 0.00 0.00 72 1014.7
20260905014903 81 76 0.0 0.0 0.00 0.00 0.00 72 1014.7
20260905014404 81 76 0.0 0.0 0.00 0.00 0.00 71 1014.7
20260905013903 81 76 0.0 0.0 0.00 0.00 0.00 71 1014.7
20260905012905 81 76 0.0 0.0 0.00 0.00 0.00 70 1014.6
20260905012403 82 76 0.0 0.0 0.00 0.00 0.00 70 1014.6
20260905011903 82 76 0.0 0.0 0.00 0.00 0.00 70 1014.6
20260905010904 83 76 0.0 0.0 0.00 0.00 0.00 68 1014.5
20260905005403 84 76 0.0 0.9 0.00 0.00 0.00 67 1014.4
20260905004903 84 76 0.9 0.9 0.00 0.00 0.00 67 1014.4
20260905003904 85 76 0.0 0.0 0.00 0.00 0.00 65 1014.2
20260905003403 85 76 0.0 0.0 0.00 0.00 0.00 65 1014.2
20260905002904 85 76 0.0 0.0 0.00 0.00 0.00 64 1014.2